Weather History for EGLL - November, 2011

Change the Weather History Date:

Wednesday, November 30, 2011

  Actual Average Record
Temperature  
Mean Temperature 48 °F -  
Max Temperature 55 °F 45 °F 59 °F (2001)
Min Temperature 42 °F 36 °F 28 °F (2005)
Degree Days  
Heating Degree Days 16    
Moisture  
Dew Point 41 °F    
Average Humidity 77    
Maximum Humidity 93    
Minimum Humidity 61    
Precipitation  
Precipitation 0.01 in - - ()
Sea Level Pressure  
Sea Level Pressure 30.08 in    
Wind  
Wind Speed 10 mph ()    
Max Wind Speed 17 mph    
Max Gust Speed 30 mph    
Visibility 8.2 miles    
Events Rain    
Averages and records for this station are not official NWS values.
T = Trace of Precipitation, MM = Missing Value Source: Averaged Metar Reports

Daily Weather History Graph

Daily Weather History Graph

Search for Another Location

Airport or City:

Trip Planner

Search our weather history database for the weather conditions in past years. The results will help you decide how hot, cold, wet, or windy it might be!

Date:

Astronomy

Nov. 30, 2011 Rise Set
Actual Time 7:43 AM GMT 3:57 PM GMT
Civil Twilight 7:04 AM GMT 4:36 PM GMT
Nautical Twilight 6:22 AM GMT 5:18 PM GMT
Astronomical Twilight 5:41 AM GMT 5:58 PM GMT
Moon 11:34 AM GMT (11/30) 10:01 PM GMT (11/30)
Length of Visible Light 9h 32m
Length of Day
8h 14m
Waxing Crescent, 31% of the Moon is Illuminated
Nov 30
Waxing Crescent
Dec 2
First Quarter
Dec 10
Full
Dec 18
Last Quarter
Dec 24
New

Hourly Weather History & Observations

Time (GMT) Temp. Windchill Dew Point Humidity Pressure Visibility Wind Dir Wind Speed Gust Speed Precip Events Conditions
12:20 AM 42.8 °F 36.6 °F 37.4 °F 81% 30.06 in - SW 11.5 mph - N/A   Clear
12:50 AM 42.8 °F 37.5 °F 35.6 °F 76% 30.06 in - SW 9.2 mph - N/A   Clear
1:20 AM 42.8 °F 36.6 °F 35.6 °F 76% 30.09 in 6.2 mi SW 11.5 mph - N/A   Unknown
1:50 AM 42.8 °F 37.5 °F 35.6 °F 76% 30.09 in 6.2 mi SW 9.2 mph - N/A   Unknown
2:20 AM 42.8 °F 37.5 °F 37.4 °F 81% 30.09 in 6.2 mi SW 9.2 mph - N/A   Unknown
2:50 AM 44.6 °F 38.8 °F 37.4 °F 76% 30.09 in - WSW 11.5 mph - N/A   Clear
3:20 AM 44.6 °F 38.8 °F 37.4 °F 76% 30.12 in - WSW 11.5 mph - N/A   Clear
3:50 AM 44.6 °F 39.7 °F 37.4 °F 76% 30.12 in - SW 9.2 mph - N/A   Clear
4:20 AM 42.8 °F 39.3 °F 37.4 °F 81% 30.12 in - SSW 5.8 mph - N/A   Clear
4:50 AM 42.8 °F 38.0 °F 37.4 °F 81% 30.12 in - SW 8.1 mph - N/A   Clear
5:20 AM 44.6 °F 40.2 °F 37.4 °F 76% 30.15 in - SW 8.1 mph - N/A   Clear
5:50 AM 44 °F - 38 °F 71% 30.16 in 17 mi SW 9.2 mph - -  
5:50 AM 44.6 °F 40.2 °F 37.4 °F 76% 30.15 in - SW 8.1 mph - N/A   Clear
6:20 AM 42.8 °F 38.6 °F 37.4 °F 81% 30.15 in - SSW 6.9 mph - N/A   Clear
6:50 AM 44.6 °F 40.2 °F 37.4 °F 76% 30.15 in - SW 8.1 mph - N/A   Clear
7:20 AM 44.6 °F 40.2 °F 39.2 °F 81% 30.15 in - SW 8.1 mph - N/A   Clear
7:50 AM 42.8 °F 38.0 °F 39.2 °F 87% 30.18 in - SSW 8.1 mph - N/A   Clear
8:20 AM 42.8 °F 38.0 °F 39.2 °F 87% 30.18 in - SSW 8.1 mph - N/A   Clear
8:50 AM 46 °F - 40 °F 72% 30.19 in 14 mi South 9.2 mph - -  
8:50 AM 46.4 °F 42.4 °F 39.2 °F 76% 30.18 in - SSW 8.1 mph - N/A   Clear
9:20 AM 46.4 °F 42.4 °F 41.0 °F 81% 30.18 in - SSW 8.1 mph - N/A   Clear
9:50 AM 48.2 °F - 41.0 °F 76% 30.18 in - SSW 10.4 mph - N/A   Clear
10:20 AM 50.0 °F - 42.8 °F 76% 30.18 in - SSW 11.5 mph - N/A   Clear
10:50 AM 50.0 °F - 42.8 °F 76% 30.18 in - SSW 11.5 mph - N/A   Clear
11:20 AM 51.8 °F - 42.8 °F 71% 30.18 in 6.2 mi SW 11.5 mph 24.2 mph N/A   Partly Cloudy
11:50 AM 53 °F - 44 °F 62% 30.19 in 19 mi SSW 11.5 mph - -   Scattered Clouds
11:50 AM 51.8 °F - 44.6 °F 76% 30.18 in 6.2 mi SW 10.4 mph - N/A   Partly Cloudy
12:20 PM 53.6 °F - 42.8 °F 67% 30.18 in 6.2 mi SSW 11.5 mph - N/A   Partly Cloudy
12:50 PM 53.6 °F - 42.8 °F 67% 30.15 in 6.2 mi SW 11.5 mph - N/A   Scattered Clouds
1:20 PM 53.6 °F - 44.6 °F 72% 30.15 in 6.2 mi SSW 12.7 mph - N/A   Scattered Clouds
1:50 PM 51.8 °F - 46.4 °F 82% 30.15 in 6.2 mi SSW 11.5 mph - N/A   Scattered Clouds
2:20 PM 51.8 °F - 44.6 °F 76% 30.12 in 6.2 mi SSW 11.5 mph - N/A   Partly Cloudy
2:50 PM 52 °F - 44 °F 66% 30.14 in 19 mi SSW 16.1 mph - - Rain Rain
2:50 PM 50.0 °F - 44.6 °F 82% 30.12 in 6.2 mi SSW 12.7 mph - N/A   Mostly Cloudy
3:20 PM 50.0 °F - 44.6 °F 82% 30.12 in 6.2 mi SW 10.4 mph - N/A   Scattered Clouds
3:50 PM 50.0 °F - 44.6 °F 82% 30.12 in 6.2 mi SSW 8.1 mph - N/A   Scattered Clouds
4:20 PM 48.2 °F - 44.6 °F 87% 30.09 in - South 9.2 mph - N/A   Clear
4:50 PM 50.0 °F - 44.6 °F 82% 30.09 in - South 9.2 mph - N/A   Clear
5:20 PM 50.0 °F - 44.6 °F 82% 30.06 in 6.2 mi SSW 12.7 mph - N/A   Scattered Clouds
5:50 PM 50 °F - 44 °F 72% 30.06 in 13 mi South 12.7 mph - - Rain Light Rain Showers
5:50 PM 50.0 °F - 44.6 °F 82% 30.06 in 6.2 mi South 12.7 mph - N/A   Partly Cloudy
6:20 PM 50.0 °F - 42.8 °F 76% 30.04 in - South 12.7 mph - N/A   Clear
6:50 PM 50.0 °F - 42.8 °F 76% 30.04 in - South 12.7 mph - N/A   Clear
7:20 PM 50.0 °F - 41.0 °F 71% 30.01 in - South 13.8 mph - N/A   Clear
7:50 PM 50.0 °F - 41.0 °F 71% 30.01 in - South 12.7 mph - N/A   Clear
8:20 PM 50.0 °F - 41.0 °F 71% 29.98 in - South 12.7 mph - N/A   Clear
8:50 PM 51 °F - 42 °F 61% 29.96 in 17 mi South 13.8 mph - -   Scattered Clouds
8:50 PM 50.0 °F - 41.0 °F 71% 29.95 in 6.2 mi South 15.0 mph - N/A   Partly Cloudy
9:20 PM 50.0 °F - 41.0 °F 71% 29.95 in - South 13.8 mph - N/A   Clear
9:50 PM 50.0 °F - 42.8 °F 76% 29.92 in 6.2 mi South 16.1 mph - N/A   Partly Cloudy
10:20 PM 50.0 °F - 42.8 °F 76% 29.89 in 6.2 mi South 16.1 mph 29.9 mph N/A   Scattered Clouds
10:50 PM 50.0 °F - 44.6 °F 82% 29.86 in 6.2 mi South 16.1 mph - N/A Rain Light Rain
11:20 PM 50.0 °F - 46.4 °F 87% 29.83 in 6.2 mi South 16.1 mph - N/A Rain Light Rain
11:50 PM 49 °F - 47 °F 88% 29.82 in 3 mi South 17.3 mph - - Rain Light Rain Showers
11:50 PM 48.2 °F - 46.4 °F 93% 29.80 in 5.0 mi South 16.1 mph - N/A Rain Rain